Location: Recife
(8.0585°S, 34.8848°W)
Time: 10:16:19
(UTC-03:00)

Altair - Pass Details

Date: 18 April 2026
Orbit: 1501 x 1682 km, 47.2° (Epoch: 20 May)

Event Time Altitude Azimuth Distance (km) Brightness Sun altitude
Rises 21:36:22 0° 307° (NW) 4,651 10.3 -64.6°
Enters shadow 21:38:22 - 304° (NW) 4,013 9.9 -65.1°
Reaches altitude 10° 21:39:31 10° 302° (WNW) 3,659 - -65.3°
Maximum altitude 21:48:20 52° 228° (SW) 1,812 - -67.5°
Drops below altitude 10° 21:57:13 10° 153° (SSE) 3,672 - -69.7°
Sets 22:00:24 0° 148° (SSE) 4,670 - -70.4°
